EW3693 Weather Reports


Display with metric or nautical units.
time (UTC)temp
F
wind
direction
speed
MPH
gust
MPH
rain 1hr
in
rain 24hr
in
rain mn
in
humidity
%
barometer
mb
20260504081026 65 0 9.0 12.0 0.00 0.00 0.00 78 1013.0
20260504060105 60 0 12.0 16.0 0.00 0.00 0.00 86 1011.7
20260504045026 57 0 7.0 12.0 0.00 0.00 0.00 91 1011.1
20260504044025 57 0 8.0 12.0 0.00 0.00 0.00 90 1011.0
20260504043026 57 0 6.0 12.0 0.00 0.00 0.00 90 1010.9
20260504042025 57 0 6.0 11.0 0.00 0.00 0.00 89 1010.8
20260504041046 57 0 6.0 10.0 0.00 0.00 0.00 89 1010.8
20260504040025 58 0 7.0 11.0 0.00 0.00 0.00 89 1010.8
20260504035025 58 0 7.0 11.0 0.00 0.00 0.00 89 1010.7
20260504034106 58 0 8.0 11.0 0.00 0.00 0.00 90 1010.8
20260504033025 58 0 7.0 12.0 0.00 0.00 0.00 90 1010.8
20260504032025 57 0 7.0 11.0 0.00 0.00 0.00 90 1010.8
20260504031025 57 0 6.0 9.0 0.00 0.00 0.00 90 1010.8
20260504030025 57 0 5.0 9.0 0.00 0.00 0.00 90 1010.8
20260504025025 57 0 4.0 9.0 0.00 0.00 0.00 90 1010.7
20260504024025 57 0 3.0 6.0 0.00 0.00 0.00 90 1010.7
20260504023025 57 0 4.0 8.0 0.00 0.00 0.00 90 1010.7
20260504022025 56 0 4.0 8.0 0.00 0.00 0.00 90 1010.7
20260504021046 56 0 4.0 9.0 0.00 0.00 0.00 90 1010.8
20260504020025 56 0 5.0 9.0 0.00 0.00 0.00 90 1010.7
20260504015025 56 0 5.0 8.0 0.00 0.00 0.00 89 1010.7
20260504014105 56 0 3.0 6.0 0.00 0.00 0.00 88 1010.6
20260504013045 57 0 4.0 8.0 0.00 0.00 0.00 88 1010.6
20260504012026 57 0 5.0 8.0 0.00 0.00 0.00 87 1010.6
20260504011029 57 0 5.0 8.0 0.00 0.00 0.00 87 1010.7
20260504010029 57 0 7.0 13.0 0.00 0.00 0.00 87 1010.6
20260504005029 58 0 10.0 13.0 0.00 0.00 0.00 86 1010.5
20260504004049 58 0 9.0 12.0 0.00 0.00 0.00 86 1010.5
20260504003029 58 0 7.0 9.0 0.00 0.00 0.00 86 1010.4
20260504002028 58 0 5.0 9.0 0.00 0.00 0.00 86 1010.5
20260504001029 58 0 5.0 9.0 0.00 0.00 0.00 85 1010.6
20260504000029 59 0 7.0 10.0 0.00 0.00 0.00 84 1010.5
20260503235029 59 0 10.0 14.0 0.00 0.00 0.00 84 1010.5
20260503234029 59 0 10.0 15.0 0.00 0.00 0.00 83 1010.5
20260503233028 59 0 7.0 11.0 0.00 0.00 0.00 82 1010.6
20260503232029 59 0 9.0 14.0 0.00 0.00 0.00 82 1010.6
20260503231025 60 0 12.0 17.0 0.00 0.00 0.00 81 1010.7
20260503230029 60 0 12.0 17.0 0.00 0.00 0.00 81 1010.6
20260503225048 60 0 12.0 16.0 0.00 0.00 0.00 79 1010.5
20260503224048 61 0 12.0 17.0 0.00 0.00 0.00 78 1010.4
20260503223028 62 0 14.0 18.0 0.00 0.00 0.00 78 1010.4
20260503222029 62 0 13.0 18.0 0.00 0.00 0.00 76 1010.4
20260503221028 62 0 13.0 18.0 0.00 0.00 0.00 76 1010.5
20260503220029 62 0 14.0 19.0 0.00 0.00 0.00 75 1010.5
20260503215028 63 0 14.0 18.0 0.00 0.00 0.00 75 1010.5
20260503214029 63 0 12.0 21.0 0.00 0.00 0.00 75 1010.4
20260503213028 63 0 13.0 18.0 0.00 0.00 0.00 74 1010.4
20260503212028 63 0 20.0 31.0 0.00 0.00 0.00 74 1010.5
20260503211028 63 0 14.0 19.0 0.00 0.00 0.00 75 1010.3
20260503210028 64 0 10.0 15.0 0.00 0.00 0.00 75 1010.2
20260503205028 64 0 10.0 13.0 0.00 0.00 0.00 73 1010.1
20260503204028 65 0 13.0 17.0 0.00 0.00 0.00 69 1010.0
20260503203029 65 0 16.0 23.0 0.00 0.00 0.00 63 1009.9
20260503202028 65 0 12.0 17.0 0.00 0.00 0.00 61 1009.8
20260503201029 65 0 13.0 19.0 0.00 0.00 0.00 62 1009.8
20260503200028 65 0 11.0 16.0 0.00 0.00 0.00 65 1009.8
20260503195028 65 0 6.0 11.0 0.00 0.00 0.00 67 1009.6
20260503194029 65 0 5.0 8.0 0.00 0.00 0.00 66 1009.5
20260503193028 66 0 8.0 12.0 0.00 0.00 0.00 64 1009.4
20260503192028 67 0 13.0 19.0 0.00 0.00 0.00 64 1009.4
20260503191028 69 0 12.0 21.0 0.00 0.00 0.00 60 1009.4
20260503190028 70 0 11.0 16.0 0.00 0.00 0.00 49 1009.1
20260503185028 70 0 7.0 13.0 0.00 0.00 0.00 49 1008.8
20260503184028 70 0 7.0 12.0 0.00 0.00 0.00 48 1008.6
20260503183028 70 0 9.0 18.0 0.00 0.00 0.00 49 1008.4
20260503182028 70 0 8.0 16.0 0.00 0.00 0.00 47 1008.3
20260503181028 71 0 8.0 14.0 0.00 0.00 0.00 46 1008.2
20260503180028 71 0 8.0 16.0 0.00 0.00 0.00 46 1008.2
20260503175048 71 0 9.0 14.0 0.00 0.00 0.00 46 1008.1
20260503174028 72 0 9.0 16.0 0.00 0.00 0.00 45 1008.1
20260503173028 72 0 10.0 20.0 0.00 0.00 0.00 43 1008.3
20260503172028 73 0 10.0 24.0 0.00 0.00 0.00 44 1008.1
20260503171028 73 0 8.0 19.0 0.00 0.00 0.00 47 1008.2
20260503160108 76 0 8.0 14.0 0.00 0.00 0.00 45 1008.3
20260503131027 76 203 2.0 5.0 0.00 0.00 0.00 58 1010.4